CCA992 CYVR-ZBAA

Flight info

Callsign CCA992
Flight time N/A
Altitude FL340
Route YVR3 ARRUE Q902 OTZ B244 FRENK N735 LORKI N991 OSKON B155 KURAK R819 ARDIB N622 KU G496 NAREM B161 SULOK Y327 POLHO W33 NUVPU W52 URGOM W54 VAGNU W49 OSUBA OSUB7X
Aircraft A346/H-S/N

Departure

Time 2026-05-08 02:56
Airport Vancouver International Airport (CYVR)

Arrival

Time N/A
Airport Beijing Capital International Airport (ZBAA)
Time Latitude Longitude Altitude Speed Heading
2026-05-08 02:17 49.19868 -123.17857 31 ft 0 kts 223°
2026-05-08 02:35 49.19869 -123.17857 31 ft 1 kts 223°
2026-05-08 02:36 49.19879 -123.17842 31 ft 2 kts 223°
2026-05-08 02:36 49.19890 -123.17827 31 ft 2 kts 223°
2026-05-08 02:36 49.19901 -123.17811 31 ft 2 kts 227°
2026-05-08 02:36 49.19910 -123.17793 31 ft 2 kts 237°
2026-05-08 02:37 49.19917 -123.17773 31 ft 2 kts 245°
2026-05-08 02:37 49.19923 -123.17752 31 ft 2 kts 253°
2026-05-08 02:37 49.19927 -123.17730 31 ft 2 kts 261°
2026-05-08 02:37 49.19928 -123.17708 31 ft 2 kts 269°
2026-05-08 02:38 49.19927 -123.17684 31 ft 2 kts 277°
2026-05-08 02:38 49.19926 -123.17670 31 ft 1 kts 282°
2026-05-08 02:38 49.19926 -123.17667 30 ft 0 kts 282°
2026-05-08 02:40 49.19926 -123.17670 29 ft 1 kts 282°
2026-05-08 02:41 49.19928 -123.17680 29 ft 1 kts 282°
2026-05-08 02:41 49.19931 -123.17707 29 ft 4 kts 280°
2026-05-08 02:41 49.19939 -123.17773 29 ft 9 kts 282°
2026-05-08 02:41 49.19974 -123.17843 30 ft 8 kts 337°
2026-05-08 02:42 49.20026 -123.17855 30 ft 7 kts 337°
2026-05-08 02:42 49.20052 -123.17907 31 ft 6 kts 289°
2026-05-08 02:42 49.20060 -123.17959 32 ft 5 kts 280°
2026-05-08 02:42 49.20066 -123.18010 33 ft 5 kts 280°
2026-05-08 02:43 49.20075 -123.18079 33 ft 9 kts 280°
2026-05-08 02:43 49.20094 -123.18251 31 ft 22 kts 280°
2026-05-08 02:43 49.20122 -123.18503 32 ft 23 kts 280°
2026-05-08 02:43 49.20149 -123.18734 32 ft 21 kts 280°
2026-05-08 02:44 49.20172 -123.18932 32 ft 15 kts 281°
2026-05-08 02:44 49.20161 -123.19010 32 ft 7 kts 227°
2026-05-08 02:44 49.20107 -123.19040 31 ft 11 kts 190°
2026-05-08 02:44 49.20012 -123.19066 29 ft 16 kts 190°
2026-05-08 02:45 49.19887 -123.19099 29 ft 20 kts 189°
2026-05-08 02:45 49.19757 -123.19133 29 ft 18 kts 190°
2026-05-08 02:45 49.19639 -123.19164 29 ft 16 kts 190°
2026-05-08 02:45 49.19569 -123.19169 29 ft 9 kts 163°
2026-05-08 02:46 49.19516 -123.19119 29 ft 9 kts 143°
2026-05-08 02:46 49.19463 -123.19057 29 ft 11 kts 142°
2026-05-08 02:46 49.19392 -123.18973 29 ft 15 kts 142°
2026-05-08 02:46 49.19300 -123.18863 29 ft 18 kts 142°
2026-05-08 02:47 49.19195 -123.18738 31 ft 20 kts 142°
2026-05-08 02:47 49.19088 -123.18608 33 ft 19 kts 142°
2026-05-08 02:47 49.18991 -123.18491 33 ft 17 kts 139°
2026-05-08 02:47 49.18944 -123.18343 33 ft 15 kts 101°
2026-05-08 02:48 49.18926 -123.18189 33 ft 15 kts 99°
2026-05-08 02:48 49.18907 -123.18022 33 ft 17 kts 100°
2026-05-08 02:48 49.18886 -123.17837 30 ft 18 kts 100°
2026-05-08 02:48 49.18866 -123.17661 29 ft 16 kts 100°
2026-05-08 02:49 49.18847 -123.17499 29 ft 15 kts 100°
2026-05-08 02:49 49.18830 -123.17350 29 ft 14 kts 100°
2026-05-08 02:49 49.18813 -123.17202 29 ft 14 kts 100°
2026-05-08 02:49 49.18796 -123.17049 29 ft 17 kts 100°
2026-05-08 02:50 49.18771 -123.16830 29 ft 25 kts 100°
2026-05-08 02:50 49.18739 -123.16550 29 ft 26 kts 100°
2026-05-08 02:50 49.18706 -123.16320 29 ft 13 kts 119°
2026-05-08 02:50 49.18651 -123.16216 29 ft 12 kts 120°
2026-05-08 02:51 49.18637 -123.16165 29 ft 1 kts 105°
2026-05-08 02:51 49.18635 -123.16149 29 ft 2 kts 102°
2026-05-08 02:51 49.18631 -123.16124 29 ft 0 kts 101°
2026-05-08 02:51 49.18631 -123.16120 29 ft 0 kts 101°
2026-05-08 02:53 49.18627 -123.16086 29 ft 6 kts 101°
2026-05-08 02:53 49.18615 -123.15992 27 ft 11 kts 100°
2026-05-08 02:54 49.18601 -123.15864 27 ft 13 kts 100°
2026-05-08 02:54 49.18567 -123.15765 27 ft 9 kts 152°
2026-05-08 02:54 49.18503 -123.15762 28 ft 10 kts 190°
2026-05-08 02:54 49.18450 -123.15793 29 ft 4 kts 231°
2026-05-08 02:55 49.18445 -123.15829 29 ft 3 kts 279°
2026-05-08 02:55 49.18471 -123.16053 29 ft 56 kts 280°
2026-05-08 02:55 49.18577 -123.16991 30 ft 122 kts 280°
2026-05-08 02:56 49.18754 -123.18548 33 ft 175 kts 279°
2026-05-08 02:56 49.18979 -123.20561 243 ft 200 kts 278°
2026-05-08 02:56 49.19222 -123.22711 694 ft 210 kts 278°
2026-05-08 02:56 49.19465 -123.24951 1337 ft 214 kts 278°
2026-05-08 02:57 49.19707 -123.27168 2033 ft 209 kts 279°
2026-05-08 02:57 49.19964 -123.29427 2390 ft 218 kts 279°
2026-05-08 02:57 49.20240 -123.31811 2687 ft 230 kts 280°
2026-05-08 02:57 49.20541 -123.34405 2919 ft 249 kts 280°
2026-05-08 02:58 49.20861 -123.37164 3242 ft 264 kts 280°
2026-05-08 02:58 49.21191 -123.40019 3754 ft 271 kts 280°
2026-05-08 02:58 49.21527 -123.42925 4391 ft 274 kts 281°
2026-05-08 02:58 49.21865 -123.45844 5018 ft 278 kts 281°
2026-05-08 02:59 49.22207 -123.48807 5691 ft 279 kts 281°
2026-05-08 02:59 49.22548 -123.51754 6358 ft 280 kts 282°
2026-05-08 02:59 49.22894 -123.54751 7019 ft 282 kts 281°
2026-05-08 02:59 49.23241 -123.57751 7630 ft 284 kts 281°
2026-05-08 03:00 49.23589 -123.60769 8201 ft 287 kts 281°
2026-05-08 03:00 49.23943 -123.63834 8779 ft 290 kts 280°
2026-05-08 03:00 49.24301 -123.66943 9379 ft 293 kts 279°
2026-05-08 03:00 49.24665 -123.70113 9954 ft 295 kts 279°
2026-05-08 03:01 49.25031 -123.73309 10393 ft 303 kts 279°
2026-05-08 03:01 49.25565 -123.76548 10633 ft 317 kts 289°
2026-05-08 03:01 49.26403 -123.79777 10887 ft 330 kts 292°
2026-05-08 03:01 49.27320 -123.83126 11142 ft 344 kts 292°
2026-05-08 03:02 49.28255 -123.86612 11383 ft 357 kts 291°
2026-05-08 03:02 49.29212 -123.90272 11623 ft 371 kts 291°
2026-05-08 03:02 49.30190 -123.94073 11960 ft 380 kts 290°
2026-05-08 03:02 49.31168 -123.97927 12546 ft 383 kts 290°
2026-05-08 03:03 49.32142 -124.01792 13116 ft 385 kts 290°
2026-05-08 03:03 49.33111 -124.05660 13669 ft 388 kts 290°
2026-05-08 03:03 49.34091 -124.09586 14252 ft 390 kts 290°
2026-05-08 03:03 49.35069 -124.13515 14790 ft 392 kts 290°
2026-05-08 03:04 49.36049 -124.17464 15331 ft 394 kts 290°
2026-05-08 03:04 49.37048 -124.21498 15863 ft 396 kts 290°
2026-05-08 03:04 49.38040 -124.25508 16378 ft 398 kts 290°
2026-05-08 03:04 49.39046 -124.29579 16885 ft 401 kts 290°
2026-05-08 03:05 49.40043 -124.33624 17393 ft 402 kts 290°
2026-05-08 03:05 49.41049 -124.37712 17890 ft 404 kts 289°
2026-05-08 03:05 49.42059 -124.41827 18346 ft 407 kts 289°
2026-05-08 03:05 49.43089 -124.46027 18852 ft 409 kts 289°
2026-05-08 03:06 49.44145 -124.50347 19315 ft 411 kts 289°
2026-05-08 03:06 49.45178 -124.54575 19804 ft 412 kts 289°
2026-05-08 03:06 49.46207 -124.58801 20232 ft 414 kts 289°
2026-05-08 03:06 49.47257 -124.63119 20685 ft 415 kts 289°
2026-05-08 03:07 49.48315 -124.67488 21108 ft 418 kts 289°
2026-05-08 03:07 49.49357 -124.71804 21552 ft 420 kts 288°
2026-05-08 03:07 49.50410 -124.76174 21947 ft 422 kts 289°
2026-05-08 03:07 49.51444 -124.80471 22334 ft 423 kts 289°
2026-05-08 03:08 49.52464 -124.84712 22739 ft 425 kts 289°
2026-05-08 03:08 49.53492 -124.88988 23114 ft 427 kts 288°
2026-05-08 03:08 49.54548 -124.93403 23496 ft 429 kts 288°
2026-05-08 03:08 49.55584 -124.97735 23873 ft 430 kts 288°
2026-05-08 03:09 49.56640 -125.02163 24230 ft 433 kts 288°
2026-05-08 03:09 49.57731 -125.06687 24585 ft 435 kts 290°
2026-05-08 03:09 49.59043 -125.11061 24934 ft 439 kts 296°
2026-05-08 03:09 49.60621 -125.15206 25273 ft 442 kts 301°
2026-05-08 03:10 49.62483 -125.19204 25613 ft 446 kts 305°
2026-05-08 03:10 49.64455 -125.23122 25932 ft 448 kts 305°
2026-05-08 03:10 49.66454 -125.27049 26244 ft 451 kts 306°
2026-05-08 03:10 49.68445 -125.30963 26561 ft 453 kts 305°
2026-05-08 03:11 49.70458 -125.34929 26883 ft 454 kts 306°
2026-05-08 03:11 49.72503 -125.38970 27174 ft 457 kts 305°
2026-05-08 03:11 49.74548 -125.43021 27497 ft 458 kts 305°
2026-05-08 03:11 49.76541 -125.46977 27905 ft 457 kts 305°
2026-05-08 03:12 49.78571 -125.51018 28333 ft 456 kts 305°
2026-05-08 03:12 49.80604 -125.55067 28699 ft 456 kts 305°
2026-05-08 03:12 49.82623 -125.59102 28992 ft 457 kts 305°
2026-05-08 03:12 49.84640 -125.63138 29276 ft 458 kts 305°
2026-05-08 03:13 49.86695 -125.67258 29573 ft 459 kts 304°
2026-05-08 03:13 49.88679 -125.71255 29863 ft 460 kts 304°
2026-05-08 03:13 49.90640 -125.75209 30042 ft 462 kts 304°
2026-05-08 03:14 49.94584 -125.83170 30054 ft 462 kts 304°
2026-05-08 03:14 49.98669 -125.91432 30058 ft 461 kts 304°
2026-05-08 03:15 50.02815 -125.99834 30058 ft 461 kts 304°
2026-05-08 03:15 50.06922 -126.08183 30056 ft 462 kts 303°
2026-05-08 03:16 50.11026 -126.16555 30088 ft 466 kts 304°
2026-05-08 03:16 50.13073 -126.20708 30262 ft 469 kts 304°
2026-05-08 03:16 50.15117 -126.24859 30582 ft 468 kts 303°
2026-05-08 03:16 50.17108 -126.28919 30975 ft 465 kts 304°
2026-05-08 03:17 50.19051 -126.32892 31350 ft 463 kts 303°
2026-05-08 03:17 50.21013 -126.36917 31741 ft 460 kts 303°
2026-05-08 03:17 50.22947 -126.40898 32096 ft 457 kts 303°
2026-05-08 03:17 50.24909 -126.44942 32410 ft 455 kts 303°
2026-05-08 03:18 50.26863 -126.48979 32709 ft 454 kts 303°
2026-05-08 03:18 50.28796 -126.52984 32992 ft 453 kts 303°
2026-05-08 03:18 50.30698 -126.56929 33256 ft 452 kts 303°
2026-05-08 03:18 50.32624 -126.60927 33557 ft 450 kts 302°
2026-05-08 03:19 50.34541 -126.64915 33809 ft 448 kts 302°
2026-05-08 03:19 50.36448 -126.68897 34029 ft 448 kts 302°
2026-05-08 03:19 50.38337 -126.72855 34044 ft 447 kts 302°
2026-05-08 03:20 50.42163 -126.80881 34053 ft 447 kts 302°
2026-05-08 03:20 50.45928 -126.88784 34054 ft 446 kts 302°
2026-05-08 03:21 50.49750 -126.96826 34056 ft 447 kts 301°
2026-05-08 03:21 50.53501 -127.04749 34057 ft 448 kts 301°
2026-05-08 03:22 50.57304 -127.12807 34055 ft 448 kts 301°
2026-05-08 03:22 50.61109 -127.20892 34054 ft 450 kts 301°
2026-05-08 03:23 50.65157 -127.28782 34055 ft 454 kts 307°
2026-05-08 03:23 50.69814 -127.35856 34065 ft 460 kts 314°
2026-05-08 03:24 50.75053 -127.42005 34074 ft 466 kts 321°
2026-05-08 03:24 50.80784 -127.47246 34073 ft 470 kts 326°
2026-05-08 03:25 50.86646 -127.52278 34069 ft 471 kts 326°
2026-05-08 03:25 50.92505 -127.57324 34062 ft 471 kts 326°
2026-05-08 03:26 50.98352 -127.62391 34059 ft 471 kts 326°
2026-05-08 03:26 51.04174 -127.67465 34061 ft 471 kts 325°
2026-05-08 03:27 51.10065 -127.72636 34060 ft 471 kts 325°
2026-05-08 03:27 51.15843 -127.77681 34058 ft 471 kts 325°
2026-05-08 03:28 51.21563 -127.82685 34058 ft 472 kts 325°
2026-05-08 03:28 51.27357 -127.87775 34057 ft 471 kts 325°
2026-05-08 03:29 51.33213 -127.92945 34057 ft 472 kts 325°
2026-05-08 03:29 51.39067 -127.98129 34055 ft 473 kts 325°
2026-05-08 03:30 51.47855 -128.05938 34060 ft 473 kts 325°
2026-05-08 03:31 51.59574 -128.16410 34069 ft 473 kts 325°
2026-05-08 03:32 51.68329 -128.24276 34074 ft 472 kts 325°
2026-05-08 03:32 51.74208 -128.29579 34073 ft 473 kts 325°
2026-05-08 03:33 51.80058 -128.34870 34071 ft 472 kts 325°
2026-05-08 03:33 51.85932 -128.40197 34070 ft 474 kts 325°
2026-05-08 03:34 51.91831 -128.45564 34070 ft 473 kts 325°
2026-05-08 03:34 51.97686 -128.50906 34070 ft 473 kts 325°
2026-05-08 03:35 52.03530 -128.56259 34072 ft 473 kts 325°
2026-05-08 03:35 52.09383 -128.61634 34067 ft 473 kts 325°
2026-05-08 03:36 52.15255 -128.67030 34074 ft 474 kts 324°
2026-05-08 03:36 52.21152 -128.72493 34066 ft 474 kts 324°
2026-05-08 03:37 52.26947 -128.77860 34064 ft 474 kts 324°
2026-05-08 03:37 52.32817 -128.83299 34061 ft 474 kts 324°
2026-05-08 03:38 52.38636 -128.88714 34058 ft 475 kts 324°
2026-05-08 03:38 52.44449 -128.94145 34061 ft 472 kts 324°
2026-05-08 03:39 52.50238 -128.99570 34064 ft 472 kts 324°
2026-05-08 03:39 52.56069 -129.05053 34059 ft 472 kts 324°
2026-05-08 03:40 52.61833 -129.10491 34051 ft 472 kts 324°
2026-05-08 03:40 52.67638 -129.15985 34050 ft 473 kts 324°
2026-05-08 03:41 52.73455 -129.21506 34046 ft 473 kts 324°
2026-05-08 03:41 52.79254 -129.27035 34046 ft 474 kts 324°
2026-05-08 03:42 52.85032 -129.32554 34046 ft 474 kts 324°
2026-05-08 03:42 52.90842 -129.38120 34045 ft 474 kts 324°
2026-05-08 03:43 52.96656 -129.43713 34046 ft 474 kts 324°
2026-05-08 03:43 53.02444 -129.49298 34048 ft 473 kts 324°
2026-05-08 03:44 53.08251 -129.54863 34047 ft 473 kts 324°
2026-05-08 03:44 53.14073 -129.60417 34042 ft 474 kts 324°
2026-05-08 03:45 53.19882 -129.65968 34045 ft 475 kts 323°
2026-05-08 03:45 53.25667 -129.71566 34042 ft 473 kts 323°
2026-05-08 03:46 53.31427 -129.77159 34043 ft 474 kts 323°
2026-05-08 03:46 53.37230 -129.82802 34044 ft 473 kts 323°
2026-05-08 03:47 53.42928 -129.88361 34038 ft 474 kts 323°
2026-05-08 03:47 53.48749 -129.94053 34046 ft 474 kts 323°
2026-05-08 03:48 53.54562 -129.99754 34047 ft 473 kts 323°
2026-05-08 03:48 53.60357 -130.05457 34041 ft 474 kts 323°
2026-05-08 03:49 53.66069 -130.11096 34042 ft 475 kts 323°
2026-05-08 03:49 53.71835 -130.16809 34038 ft 474 kts 323°
2026-05-08 03:50 53.77624 -130.22560 34040 ft 474 kts 323°
2026-05-08 03:50 53.83298 -130.28219 34037 ft 475 kts 323°
2026-05-08 03:51 53.89027 -130.33945 34044 ft 475 kts 323°
2026-05-08 03:51 53.94738 -130.39675 34042 ft 474 kts 323°
2026-05-08 03:52 54.00518 -130.45492 34043 ft 475 kts 323°
2026-05-08 03:52 54.06284 -130.51317 34040 ft 475 kts 323°
2026-05-08 03:53 54.12033 -130.57135 34042 ft 476 kts 323°
2026-05-08 03:53 54.17829 -130.62989 34052 ft 476 kts 323°
2026-05-08 03:54 54.23567 -130.68839 34058 ft 475 kts 323°
2026-05-08 03:54 54.29307 -130.74735 34058 ft 475 kts 323°
2026-05-08 03:55 54.35029 -130.80617 34054 ft 476 kts 323°
2026-05-08 03:55 54.40738 -130.86498 34051 ft 476 kts 323°
2026-05-08 03:56 54.46463 -130.92418 34052 ft 476 kts 323°
2026-05-08 03:56 54.52163 -130.98332 34049 ft 475 kts 323°
2026-05-08 03:57 54.57887 -131.04292 34052 ft 475 kts 323°
2026-05-08 03:57 54.63423 -131.10475 34052 ft 471 kts 318°
2026-05-08 03:58 54.68655 -131.17309 34054 ft 472 kts 319°
2026-05-08 03:58 54.74204 -131.23670 34050 ft 475 kts 323°
2026-05-08 03:59 54.79859 -131.29685 34049 ft 476 kts 323°
2026-05-08 03:59 54.85525 -131.35713 34049 ft 476 kts 323°
2026-05-08 04:00 54.91144 -131.41732 34043 ft 476 kts 323°
2026-05-08 04:00 54.96796 -131.47809 34047 ft 476 kts 323°
2026-05-08 04:01 55.02403 -131.53864 34045 ft 475 kts 323°
2026-05-08 04:01 55.08016 -131.59882 34054 ft 475 kts 324°
2026-05-08 04:02 55.13749 -131.65733 34059 ft 476 kts 324°
2026-05-08 04:02 55.19453 -131.71571 34057 ft 475 kts 324°
2026-05-08 04:03 55.25137 -131.77452 34060 ft 476 kts 324°
2026-05-08 04:03 55.33677 -131.86332 34055 ft 476 kts 324°
2026-05-08 04:04 55.39365 -131.92275 34056 ft 475 kts 324°
2026-05-08 04:04 55.45018 -131.98192 34052 ft 475 kts 324°
2026-05-08 04:05 55.50697 -132.04149 34050 ft 475 kts 324°
2026-05-08 04:05 55.56381 -132.10141 34039 ft 474 kts 324°
2026-05-08 04:06 55.62038 -132.16133 34036 ft 475 kts 324°
2026-05-08 04:06 55.67713 -132.22144 34038 ft 475 kts 324°
2026-05-08 04:07 55.73453 -132.28247 34040 ft 475 kts 324°
2026-05-08 04:07 55.79120 -132.34300 34037 ft 475 kts 324°
2026-05-08 04:08 55.84794 -132.40386 34038 ft 475 kts 324°
2026-05-08 04:08 55.90463 -132.46485 34042 ft 475 kts 324°
2026-05-08 04:09 55.96149 -132.52627 34040 ft 475 kts 324°
2026-05-08 04:09 56.01814 -132.58764 34047 ft 475 kts 324°
2026-05-08 04:10 56.07482 -132.64926 34046 ft 474 kts 324°
2026-05-08 04:10 56.13126 -132.71097 34048 ft 473 kts 323°
2026-05-08 04:11 56.18754 -132.77248 34051 ft 473 kts 323°
2026-05-08 04:11 56.24361 -132.83406 34054 ft 473 kts 323°
2026-05-08 04:12 56.29969 -132.89586 34055 ft 473 kts 323°
2026-05-08 04:12 56.35599 -132.95822 34055 ft 474 kts 323°
2026-05-08 04:13 56.41183 -133.02033 34055 ft 474 kts 323°
2026-05-08 04:13 56.46771 -133.08264 34058 ft 473 kts 323°
2026-05-08 04:14 56.52284 -133.14784 34069 ft 472 kts 321°
2026-05-08 04:14 56.57735 -133.21413 34079 ft 472 kts 321°
2026-05-08 04:15 56.63195 -133.28059 34081 ft 471 kts 321°
2026-05-08 04:15 56.68644 -133.34696 34077 ft 471 kts 321°
2026-05-08 04:16 56.74095 -133.41354 34066 ft 472 kts 321°
2026-05-08 04:16 56.79524 -133.48011 34045 ft 472 kts 321°
2026-05-08 04:17 56.85008 -133.54753 34042 ft 472 kts 321°
2026-05-08 04:17 56.90501 -133.61532 34046 ft 471 kts 321°
2026-05-08 04:18 56.95965 -133.68309 34058 ft 471 kts 320°
2026-05-08 04:18 57.01385 -133.75075 34059 ft 470 kts 320°
2026-05-08 04:19 57.06801 -133.81849 34079 ft 471 kts 320°
2026-05-08 04:19 57.12227 -133.88637 34091 ft 471 kts 321°
2026-05-08 04:20 57.17685 -133.95449 34094 ft 472 kts 320°
2026-05-08 04:20 57.23125 -134.02295 34096 ft 472 kts 320°
2026-05-08 04:21 57.28572 -134.09182 34095 ft 470 kts 320°
2026-05-08 04:21 57.33956 -134.16021 34082 ft 469 kts 320°
2026-05-08 04:22 57.39346 -134.22893 34086 ft 467 kts 320°
2026-05-08 04:22 57.44692 -134.29738 34080 ft 467 kts 320°
2026-05-08 04:23 57.50047 -134.36616 34089 ft 467 kts 320°
2026-05-08 04:23 57.55377 -134.43492 34097 ft 467 kts 320°
2026-05-08 04:24 57.60707 -134.50392 34093 ft 466 kts 320°
2026-05-08 04:24 57.66045 -134.57330 34104 ft 466 kts 320°
2026-05-08 04:25 57.71351 -134.64257 34102 ft 466 kts 320°
2026-05-08 04:25 57.76654 -134.71206 34110 ft 464 kts 319°
2026-05-08 04:26 57.81935 -134.78140 34108 ft 465 kts 319°
2026-05-08 04:26 57.87232 -134.85123 34099 ft 464 kts 319°
2026-05-08 04:27 57.92503 -134.92095 34097 ft 464 kts 319°
2026-05-08 04:27 57.97769 -134.99084 34098 ft 462 kts 319°
2026-05-08 04:28 58.03030 -135.06094 34098 ft 463 kts 319°
2026-05-08 04:28 58.08249 -135.13074 34096 ft 462 kts 319°
2026-05-08 04:29 58.13499 -135.20099 34102 ft 462 kts 319°
2026-05-08 04:29 58.18847 -135.26864 34109 ft 466 kts 323°
2026-05-08 04:30 58.24499 -135.32963 34117 ft 468 kts 324°
2026-05-08 04:30 58.30157 -135.38930 34120 ft 467 kts 324°
2026-05-08 04:31 58.35799 -135.44919 34121 ft 466 kts 324°
2026-05-08 04:31 58.41466 -135.50969 34134 ft 467 kts 324°
2026-05-08 04:32 58.47095 -135.57006 34139 ft 466 kts 324°
2026-05-08 04:32 58.52716 -135.63059 34135 ft 466 kts 324°
2026-05-08 04:33 58.58351 -135.69165 34117 ft 465 kts 323°
2026-05-08 04:33 58.63967 -135.75282 34098 ft 464 kts 323°
2026-05-08 04:34 58.69547 -135.81371 34067 ft 462 kts 323°
2026-05-08 04:34 58.75126 -135.87473 34059 ft 462 kts 323°
2026-05-08 04:35 58.80725 -135.93617 34060 ft 463 kts 323°
2026-05-08 04:35 58.86318 -135.99781 34072 ft 464 kts 323°
2026-05-08 04:36 58.91880 -136.05928 34081 ft 463 kts 323°
2026-05-08 04:36 58.97454 -136.12112 34085 ft 464 kts 322°
2026-05-08 04:37 59.03046 -136.18343 34080 ft 463 kts 323°
2026-05-08 04:37 59.08598 -136.24549 34059 ft 462 kts 323°
2026-05-08 04:38 59.14175 -136.30788 34039 ft 463 kts 323°
2026-05-08 04:38 59.19754 -136.37049 34014 ft 461 kts 322°
2026-05-08 04:39 59.25276 -136.43300 33989 ft 461 kts 322°
2026-05-08 04:39 59.30801 -136.49573 33984 ft 461 kts 322°
2026-05-08 04:40 59.36318 -136.55876 33989 ft 461 kts 322°
2026-05-08 04:40 59.41840 -136.62222 33989 ft 460 kts 322°
2026-05-08 04:41 59.47334 -136.68580 33979 ft 461 kts 321°
2026-05-08 04:41 59.52817 -136.74963 33962 ft 460 kts 321°
2026-05-08 04:42 59.58340 -136.81406 33955 ft 460 kts 321°
2026-05-08 04:42 59.63818 -136.87813 33953 ft 459 kts 321°
2026-05-08 04:43 59.69302 -136.94255 33950 ft 458 kts 321°
2026-05-08 04:43 59.74768 -137.00691 33947 ft 458 kts 321°
2026-05-08 04:44 59.80229 -137.07149 33954 ft 457 kts 320°
2026-05-08 04:44 59.85660 -137.13598 33979 ft 457 kts 320°
2026-05-08 04:45 59.91067 -137.20039 34007 ft 454 kts 320°
2026-05-08 04:45 59.96487 -137.26521 34043 ft 455 kts 320°
2026-05-08 04:46 60.01906 -137.33031 34045 ft 454 kts 320°
2026-05-08 04:46 60.07319 -137.39559 34015 ft 454 kts 320°
2026-05-08 04:47 60.12717 -137.46081 33987 ft 455 kts 320°
2026-05-08 04:47 60.18141 -137.52624 33964 ft 454 kts 320°
2026-05-08 04:48 60.23529 -137.59177 33952 ft 453 kts 320°
2026-05-08 04:48 60.28916 -137.65764 33951 ft 454 kts 319°
2026-05-08 04:49 60.34306 -137.72413 33958 ft 452 kts 319°
2026-05-08 04:49 60.39647 -137.79017 33974 ft 451 kts 319°
2026-05-08 04:50 60.45004 -137.85658 33975 ft 450 kts 319°
2026-05-08 04:50 60.50320 -137.92276 33960 ft 449 kts 319°
2026-05-08 04:51 60.55701 -137.98999 33940 ft 449 kts 319°
2026-05-08 04:51 60.61014 -138.05655 33929 ft 449 kts 319°
2026-05-08 04:52 60.66325 -138.12342 33937 ft 450 kts 318°
2026-05-08 04:52 60.71639 -138.19053 33962 ft 449 kts 318°
2026-05-08 04:53 60.76901 -138.25727 33991 ft 448 kts 318°
2026-05-08 04:53 60.82164 -138.32428 33988 ft 448 kts 318°
2026-05-08 04:54 60.87451 -138.39193 33990 ft 447 kts 318°
2026-05-08 04:54 60.92726 -138.45958 33999 ft 447 kts 318°
2026-05-08 04:55 60.97967 -138.52717 34028 ft 446 kts 318°
2026-05-08 04:55 61.03193 -138.59478 34019 ft 446 kts 319°
2026-05-08 04:56 61.08451 -138.66312 34007 ft 445 kts 317°
2026-05-08 04:56 61.13722 -138.73187 34013 ft 448 kts 317°
2026-05-08 04:57 61.18994 -138.80066 34018 ft 448 kts 318°
2026-05-08 04:57 61.24271 -138.86999 33993 ft 447 kts 318°
2026-05-08 04:58 61.29549 -138.93966 33975 ft 448 kts 318°
2026-05-08 04:58 61.34837 -139.01005 33989 ft 446 kts 317°
2026-05-08 04:59 61.39814 -139.08586 33999 ft 441 kts 312°
2026-05-08 04:59 61.44607 -139.16716 34012 ft 442 kts 312°
2026-05-08 05:00 61.49397 -139.24925 34020 ft 444 kts 311°
2026-05-08 05:00 61.54181 -139.33158 34018 ft 444 kts 313°
2026-05-08 05:01 61.58961 -139.41414 34011 ft 446 kts 312°
2026-05-08 05:01 61.63796 -139.49789 33993 ft 447 kts 313°
2026-05-08 05:02 61.68587 -139.58134 33970 ft 447 kts 313°
2026-05-08 05:02 61.73427 -139.66582 33997 ft 446 kts 312°
2026-05-08 05:03 61.78202 -139.74985 33971 ft 446 kts 312°
2026-05-08 05:03 61.82970 -139.83409 33933 ft 447 kts 312°
2026-05-08 05:04 61.87730 -139.91836 33939 ft 448 kts 312°
2026-05-08 05:04 61.92495 -140.00308 33942 ft 449 kts 313°
2026-05-08 05:05 61.97305 -140.08893 33921 ft 450 kts 313°
2026-05-08 05:05 62.02082 -140.17456 33905 ft 451 kts 313°
2026-05-08 05:06 62.06870 -140.26068 33889 ft 451 kts 313°
2026-05-08 05:06 62.11692 -140.34775 33887 ft 454 kts 313°
2026-05-08 05:07 62.16501 -140.43439 33919 ft 453 kts 313°
2026-05-08 05:07 62.21308 -140.52180 33931 ft 453 kts 313°
2026-05-08 05:08 62.26122 -140.60987 33944 ft 454 kts 313°
2026-05-08 05:08 62.30928 -140.69837 33946 ft 454 kts 312°
2026-05-08 05:09 62.35723 -140.78724 33938 ft 454 kts 313°
2026-05-08 05:09 62.40546 -140.87687 33934 ft 455 kts 313°
2026-05-08 05:10 62.47789 -141.01210 33952 ft 456 kts 313°
2026-05-08 05:11 62.52610 -141.10258 33962 ft 457 kts 313°
2026-05-08 05:11 62.57412 -141.19319 33956 ft 458 kts 313°
2026-05-08 05:12 62.62253 -141.28501 33962 ft 459 kts 313°
2026-05-08 05:12 62.67072 -141.37689 33960 ft 459 kts 313°
2026-05-08 05:13 62.71083 -141.45363 33968 ft 459 kts 313°